User: anonymous   Login
Location: Unspecified
(0.0000°N, 0.0000°E)
Time: 06:17:56
(UTC+00:00)
Language:

EROS-A1 - Orbit

View from above orbital plane
View from above orbital plane
View from above satellite
View from above satellite

Ground track
Ground track

The orbit data is extracted from the following two-line orbital elements,

1 26631U 00079A   16189.05109989  .20884161  29118-5  17845-3 0  9994
2 26631  97.5215 309.5274 0021517 337.3677  22.8343 16.50691252866752
Epoch (UTC): 07 July 2016 01:13:35
Eccentricity: 0.0021517
inclination: 97.5215°
perigee height: 123 km
apogee height: 151 km
right ascension of ascending node: 309.5274°
argument of perigee: 337.3677°
revolutions per day: 16.50691252
mean anomaly at epoch: 22.8343°
orbit number at epoch: 86675

The dashed part of the orbit path shows where the satellite is in the earth's shadow,  

DLR